This is the latest recevied weather packets stored in our database for station/object K5OLV. If no packets are shown the sender has not sent any weather packets the latest 10 day(s).
| Time | Temp. | Humidity | Pressure | Rain* | Wind** | Luminosity | Snow |
|---|---|---|---|---|---|---|---|
| 1777482269 | 19.44° C | 93% | 1011 hPa | 0 mm | - | 55 W/m² | - |
| 1777481966 | 20° C | 93% | 1011 hPa | 0 mm | - | 128 W/m² | - |
| 1777481664 | 19.44° C | 93% | 1010.9 hPa | 0 mm | - | 96 W/m² | - |
| 1777481360 | 19.44° C | 93% | 1010.7 hPa | 0 mm | - | 145 W/m² | - |
| 1777481057 | 19.44° C | 93% | 1010.9 hPa | 0 mm | - | 149 W/m² | - |
| 1777480754 | 19.44° C | 93% | 1010.9 hPa | 0 mm | - | 102 W/m² | - |
| 1777480450 | 19.44° C | 93% | 1011.1 hPa | 0 mm | - | 123 W/m² | - |
| 1777480146 | 19.44° C | 92% | 1010.7 hPa | 0 mm | - | 172 W/m² | - |
| 1777479843 | 20° C | 92% | 1011 hPa | 0 mm | - | 162 W/m² | - |
| 1777479540 | 20° C | 92% | 1011 hPa | 0 mm | - | 250 W/m² | - |
| 1777479237 | 19.44° C | 93% | 1011 hPa | 0 mm | - | 366 W/m² | - |
| 1777478934 | 19.44° C | 93% | 1011.1 hPa | 0 mm | - | 421 W/m² | - |
| 1777478630 | 18.89° C | 93% | 1011.2 hPa | 0 mm | - | 189 W/m² | - |
| 1777478327 | 18.89° C | 93% | 1011.1 hPa | 0 mm | - | 208 W/m² | - |
| 1777478024 | 18.89° C | 93% | 1011.1 hPa | 0 mm | - | 295 W/m² | - |
| 1777477718 | 18.89° C | 93% | 1011.1 hPa | 0 mm | - | 343 W/m² | - |
| 1777477416 | 18.89° C | 93% | 1011.3 hPa | 0 mm | - | 277 W/m² | - |
| 1777477112 | 18.33° C | 93% | 1011.2 hPa | 0 mm | - | 321 W/m² | - |
| 1777476809 | 18.33° C | 94% | 1011.4 hPa | 0 mm | - | 306 W/m² | - |
| 1777476507 | 18.33° C | 94% | 1011.3 hPa | 0 mm | - | 345 W/m² | - |
| 1777476203 | 17.78° C | 94% | 1011.2 hPa | 0 mm | - | 143 W/m² | - |
| 1777475898 | 17.78° C | 95% | 1011.5 hPa | 0 mm | - | 109 W/m² | - |
| 1777475595 | 18.33° C | 94% | 1011.6 hPa | 0 mm | - | 54 W/m² | - |
| 1777475291 | 18.33° C | 94% | 1011.5 hPa | 0 mm | - | 71 W/m² | - |
| 1777474986 | 18.33° C | 94% | 1011.3 hPa | 0 mm | - | 208 W/m² | - |
* Rain latest hour (hover to see other rain measurements)
** Current wind speed in m/s (hover to see current wind gust speed)